Phillips, WI

7:34 AM CDT on March 25, 2017 (GMT -0500)
Price County

Weather History for KPBH - March, 2013

Change the Weather History Date:

Saturday, March 30, 2013

  Actual Average Record
Temperature  
Mean Temperature 37 °F -  
Max Temperature 41 °F 41 °F 66 °F (2005)
Min Temperature 33 °F 23 °F 8 °F (2011)
Degree Days  
Heating Degree Days 28    
Moisture  
Dew Point 34 °F    
Average Humidity 86    
Maximum Humidity 100    
Minimum Humidity 49    
Precipitation  
Precipitation 0.00 in - - ()
Sea Level Pressure  
Sea Level Pressure 29.90 in    
Wind  
Wind Speed 6 mph (SSW)    
Max Wind Speed 13 mph    
Max Gust Speed 20 mph    
Visibility 4 miles    
Events Fog , Rain    
Averages and records for this station are not official NWS values.
T = Trace of Precipitation, MM = Missing Value Source: NWS Daily Summary

Daily Weather History Graph

Daily Weather History Graph

Search for Another Location

Airport or City:

Trip Planner

Search our weather history database for the weather conditions in past years. The results will help you decide how hot, cold, wet, or windy it might be!

Date:

Astronomy

Mar. 30, 2013 Rise Set
Actual Time 6:45 AM CDT 7:27 PM CDT
Civil Twilight 6:15 AM CDT 7:57 PM CDT
Nautical Twilight 5:39 AM CDT 8:33 PM CDT
Astronomical Twilight 5:02 AM CDT 9:10 PM CDT
Moon 11:47 PM CDT (3/30) 8:28 AM CDT (3/30)
Length of Visible Light 13h 42m
Length of Day
12h 42m
Waning Gibbous, 86% of the Moon is Illuminated
Mar 30
Waning Gibbous
Apr 2
Last Quarter
Apr 10
New
Apr 18
First Quarter
Apr 25
Full

Hourly Weather History & Observations

Time (CDT) Temp. Windchill Dew Point Humidity Pressure Visibility Wind Dir Wind Speed Gust Speed Precip Events Conditions
12:15 AM 39.2 °F 35.9 °F 21.2 °F 49% 30.12 in 10.0 mi South 4.6 mph - N/A   Mostly Cloudy
12:35 AM 37.4 °F 34.9 °F 21.2 °F 52% 30.12 in 10.0 mi SSW 3.5 mph - N/A   Mostly Cloudy
12:55 AM 37.4 °F 33.8 °F 21.2 °F 52% 30.11 in 10.0 mi South 4.6 mph - N/A   Mostly Cloudy
1:15 AM 39.2 °F 35.9 °F 21.2 °F 49% 30.11 in 10.0 mi South 4.6 mph - N/A   Mostly Cloudy
1:35 AM 39.2 °F 35.0 °F 21.2 °F 49% 30.10 in 10.0 mi South 5.8 mph - N/A   Mostly Cloudy
1:55 AM 39.2 °F 34.2 °F 21.2 °F 49% 30.09 in 10.0 mi South 6.9 mph - N/A   Mostly Cloudy
2:15 AM 39.2 °F 34.2 °F 23.0 °F 52% 30.08 in 10.0 mi SSW 6.9 mph - N/A   Mostly Cloudy
2:35 AM 39.2 °F 34.2 °F 24.8 °F 56% 30.07 in 10.0 mi South 6.9 mph - N/A   Overcast
2:55 AM 39.2 °F 33.6 °F 24.8 °F 56% 30.07 in 10.0 mi SSW 8.1 mph - N/A   Overcast
3:15 AM 41.0 °F 36.4 °F 24.8 °F 53% 30.06 in 10.0 mi South 6.9 mph - N/A   Overcast
3:35 AM 41.0 °F 35.8 °F 26.6 °F 57% 30.05 in 10.0 mi South 8.1 mph - N/A   Drizzle
3:55 AM 39.2 °F 34.2 °F 26.6 °F 61% 30.04 in 7.0 mi SSW 6.9 mph - N/A   Drizzle
4:15 AM 39.2 °F 34.2 °F 30.2 °F 70% 30.03 in 7.0 mi South 6.9 mph - N/A Rain Light Rain
4:35 AM 39.2 °F 34.2 °F 30.2 °F 70% 30.02 in 10.0 mi South 6.9 mph - N/A Rain Light Rain
4:55 AM 39.2 °F 34.2 °F 32.0 °F 75% 30.01 in 7.0 mi South 6.9 mph - N/A Rain Light Rain
5:15 AM 39.2 °F 35.9 °F 33.8 °F 81% 30.01 in 5.0 mi South 4.6 mph - N/A Rain Light Rain
5:35 AM 39.2 °F 33.0 °F 33.8 °F 81% 30.01 in 7.0 mi South 9.2 mph - N/A Rain Light Rain
5:55 AM 39.2 °F 35.0 °F 33.8 °F 81% 29.99 in 7.0 mi South 5.8 mph - N/A Rain Light Rain
6:15 AM 39.2 °F 33.6 °F 33.8 °F 81% 29.99 in 7.0 mi South 8.1 mph - N/A   Light Drizzle
6:35 AM 39.2 °F 33.0 °F 33.8 °F 81% 29.97 in 7.0 mi South 9.2 mph - N/A Rain Light Rain
6:55 AM 39.2 °F 32.5 °F 33.8 °F 81% 29.95 in 7.0 mi South 10.4 mph 16.1 mph N/A Rain Rain
7:15 AM 39.2 °F 32.5 °F 33.8 °F 81% 29.94 in 7.0 mi South 10.4 mph 19.6 mph N/A Rain Light Rain
7:35 AM 39.2 °F 32.0 °F 35.6 °F 87% 29.92 in 7.0 mi South 11.5 mph - N/A Rain Light Rain
7:55 AM 39.2 °F 32.0 °F 35.6 °F 87% 29.92 in 5.0 mi South 11.5 mph 17.3 mph N/A Rain Rain
8:15 AM 39.2 °F 32.5 °F 35.6 °F 87% 29.91 in 4.0 mi South 10.4 mph 16.1 mph N/A Rain Rain
8:35 AM 37.4 °F 29.8 °F 35.6 °F 93% 29.90 in 5.0 mi South 11.5 mph 18.4 mph N/A Rain Light Rain
8:55 AM 37.4 °F 30.8 °F 35.6 °F 93% 29.89 in 4.0 mi South 9.2 mph - N/A Rain Rain
9:15 AM 37.4 °F 32.8 °F 35.6 °F 93% 29.88 in 4.0 mi SSW 5.8 mph - N/A Rain Light Rain
9:35 AM 37.4 °F 32.1 °F 35.6 °F 93% 29.88 in 1.8 mi SSW 6.9 mph - N/A Rain Rain
9:55 AM 39.2 °F 34.2 °F 37.4 °F 93% 29.88 in 3.0 mi SW 6.9 mph - N/A Rain Rain
10:15 AM 39.2 °F 32.5 °F 37.4 °F 93% 29.88 in 2.5 mi SW 10.4 mph - N/A Rain Rain
10:35 AM 39.2 °F 33.6 °F 37.4 °F 93% 29.88 in 3.0 mi SW 8.1 mph - N/A Rain Rain
10:55 AM 39.2 °F 32.5 °F 37.4 °F 93% 29.87 in 3.0 mi SW 10.4 mph - N/A Rain Light Rain
11:15 AM 39.2 °F 32.5 °F 37.4 °F 93% 29.86 in 4.0 mi SSW 10.4 mph - N/A Rain Light Rain
11:35 AM 39.2 °F 31.6 °F 37.4 °F 93% 29.86 in 5.0 mi SSW 12.7 mph 17.3 mph N/A Rain Light Rain
11:55 AM 39.2 °F 33.0 °F 37.4 °F 93% 29.86 in 4.0 mi SW 9.2 mph 16.1 mph N/A Rain Light Rain
12:15 PM 39.2 °F 33.0 °F 37.4 °F 93% 29.85 in 5.0 mi SW 9.2 mph - N/A Rain Light Rain
12:35 PM 39.2 °F 33.0 °F 37.4 °F 93% 29.85 in 5.0 mi SSW 9.2 mph - N/A Rain Light Rain
12:55 PM 39.2 °F 34.2 °F 39.2 °F 100% 29.84 in 5.0 mi SW 6.9 mph - N/A   Overcast
1:15 PM 39.2 °F 33.6 °F 39.2 °F 100% 29.84 in 1.5 mi SW 8.1 mph - N/A   Overcast
1:35 PM 39.2 °F 34.2 °F 39.2 °F 100% 29.84 in 1.0 mi SW 6.9 mph - N/A   Overcast
1:55 PM 39.2 °F 35.9 °F 39.2 °F 100% 29.84 in 1.0 mi WSW 4.6 mph - N/A   Overcast
2:15 PM 39.2 °F 35.0 °F 39.2 °F 100% 29.83 in 1.2 mi SW 5.8 mph - N/A   Overcast
2:35 PM 39.2 °F 35.9 °F 39.2 °F 100% 29.82 in 1.5 mi SW 4.6 mph - N/A   Overcast
2:55 PM 39.2 °F 35.0 °F 39.2 °F 100% 29.82 in 2.0 mi WSW 5.8 mph - N/A   Overcast
3:15 PM 39.2 °F 35.0 °F 39.2 °F 100% 29.82 in 2.0 mi SW 5.8 mph - N/A   Overcast
3:35 PM 39.2 °F 34.2 °F 39.2 °F 100% 29.82 in 0.8 mi SW 6.9 mph - N/A   Overcast
3:55 PM 39.2 °F 35.0 °F 39.2 °F 100% 29.82 in 0.5 mi SW 5.8 mph - N/A Fog Fog
4:15 PM 39.2 °F 35.9 °F 39.2 °F 100% 29.82 in 0.5 mi WSW 4.6 mph - N/A Fog Fog
4:35 PM 39.2 °F 37.0 °F 39.2 °F 100% 29.82 in 1.2 mi WSW 3.5 mph - N/A   Overcast
4:55 PM 41.0 °F 39.0 °F 39.2 °F 93% 29.81 in 1.8 mi West 3.5 mph - N/A   Overcast
5:15 PM 41.0 °F - 39.2 °F 93% 29.81 in 1.5 mi Calm Calm - N/A   Overcast
5:35 PM 41.0 °F - 39.2 °F 93% 29.81 in 1.8 mi Calm Calm - N/A   Overcast
5:55 PM 41.0 °F - 39.2 °F 93% 29.81 in 2.0 mi Calm Calm - N/A   Overcast
6:15 PM 39.2 °F - 39.2 °F 100% 29.81 in 2.0 mi Calm Calm - N/A   Overcast
6:35 PM 41.0 °F - 39.2 °F 93% 29.81 in 2.5 mi Calm Calm - N/A   Overcast
6:55 PM 39.2 °F - 39.2 °F 100% 29.81 in 2.5 mi Calm Calm - N/A   Overcast
7:15 PM 39.2 °F - 39.2 °F 100% 29.81 in 2.5 mi Calm Calm - N/A   Mostly Cloudy
7:35 PM 39.2 °F - 37.4 °F 93% 29.80 in 1.5 mi Calm Calm - N/A   Mostly Cloudy
7:55 PM 37.4 °F - 37.4 °F 100% 29.80 in 1.0 mi Calm Calm - N/A   Clear
8:15 PM 37.4 °F - 35.6 °F 93% 29.80 in 0.2 mi Calm Calm - N/A Fog Fog
8:35 PM 35.6 °F - 35.6 °F 100% 29.80 in 0.2 mi Calm Calm - N/A Fog Fog
8:55 PM 35.6 °F 32.8 °F 35.6 °F 100% 29.80 in 0.5 mi SW 3.5 mph - N/A Fog Fog
9:15 PM 35.6 °F - 33.8 °F 93% 29.80 in 0.2 mi Calm Calm - N/A Fog Fog
9:35 PM 33.8 °F - 33.8 °F 100% 29.80 in 0.2 mi Calm Calm - N/A Fog Fog
9:55 PM 35.6 °F 32.8 °F 33.8 °F 93% 29.79 in 0.2 mi SW 3.5 mph - N/A Fog Fog
10:15 PM 33.8 °F - 33.8 °F 100% 29.79 in 0.2 mi Calm Calm - N/A Fog Fog
10:35 PM 33.8 °F - 32.0 °F 93% 29.79 in 0.2 mi Calm Calm - N/A Fog Fog
10:55 PM 33.8 °F - 32.0 °F 93% 29.79 in 0.2 mi Calm Calm - N/A Fog Fog
11:15 PM 33.8 °F - 33.8 °F 100% 29.78 in 0.2 mi Calm Calm - N/A Fog Fog
11:35 PM 33.8 °F - 32.0 °F 93% 29.78 in 0.2 mi Calm Calm - N/A Fog Fog
11:55 PM 33.8 °F - 33.8 °F 100% 29.77 in 0.2 mi Calm Calm - N/A Fog Fog